Location: A�t Bou Chrif
(32.7193°N, 5.2385°W)
Time: 03:46:16
(UTC+00:00)

Cosmos 1743 Rocket - Pass Details

Date: 08 August 2020
Orbit: 603 x 633 km, 82.6° (Epoch: 20 September)

Event Time Altitude Azimuth Distance (km) Brightness Sun altitude
Rises 19:44:31 0° 173° (S) 2,881 6.7 -7.1°
Reaches altitude 10° 19:46:46 10° 168° (SSE) 1,984 5.8 -7.5°
Maximum altitude 19:51:02 50° 93° (E) 797 3.8 -8.3°
Drops below altitude 10° 19:55:20 10° 18° (NNE) 2,013 6.3 -9.1°
Sets 19:57:38 0° 13° (NNE) 2,927 7.2 -9.6°
